Aérodrome :
LOGIN :

S'inscrire | Disclaimer

   EN    FR    IT 

 










Légende :    VFR   VFR Marginal   IFR   IFR Intensif   IFR Très Intensif
Visi : 
Plafond : 
>= 8 km
>= 3000ft
5 à 8 km
1000 à 3000 ft
1500m à 5 km
500 à 1000 ft
800 à 1500m
200 à 500 ft
< 800m
< 200 ft
Symboles :   Orages  Brouillard  Fortes neiges  Fortes précipitations  Vent > 20 kt
SIGMETs :   Divers  Orages  Givrage  Turbulence  Onde Orograph.  Cendres Volcan.







- Altitude de l'aérodrome : 396 ft
- Voir les cartes d'approche


LFOZ - Orléans St Denis

DERNIER METAR :
  • 210900Z AUTO 13005KT 100V180 9999 NCD 22/12 Q1014

METARs EXPIRÉS :
  • 210830Z AUTO 14005KT 9999 NCD 21/11 Q1014
  • 210800Z AUTO 14006KT 120V180 9999 NCD 19/11 Q1014
  • 210730Z AUTO 13004KT 9999 NCD 18/11 Q1015
  • 210700Z AUTO 12003KT 090V150 9999 NCD 15/09 Q1015
  • 210630Z AUTO 10002KT 9999 NCD 13/07 Q1014

TAF N/A
Pas de NOTAMs connus pour ce terrain.



MET'MAP, la Météo Aéronautique d'un coup d'oeil ! - Copyright ORBIFLY Décembre 2007 - Disclaimer

ORBIFLY MET'MAP TEAM :

Programmation & Développement : Alexandra Zaïnal
Conception & Développement : Baudouin d'Aumeries
Co-Programmation & Développement : Marc-Olivier Méhu
Soutien technique & logistique : Manuel Goepfert

Contact : metmap@orbifly.com




SOURCES & CREDITS :

   NOAA